Lexington Weather

Lexington, Massachusetts, USA

39°F
1/28/2023 10:01pm 
  • Lexington Conditions: Clear
  • Temperature: 38.5°F / 3.6°CColder 0.3°F than last hour.
  • Dew Point: 28.0°FIncreased 0.7°Fsince last hour.
  • Relative Humidity: 66%Increased 3.0% since last hour.
  • Wind: Calm, 10-min avg: Calm, gust: None
  • Barometer: 30.25 in Steady
  • Visibility: 10 miles
  • Rain Today: 0.00 in
  •   

Regional Weather Roundup
for Boston, MA

        
000
ASUS41 KBOX 271910
RWRBOX

REGIONAL WEATHER ROUNDUP
NATIONAL WEATHER SERVICE BOSTON/NORTON MA
200 PM EST FRI JAN 27 2023

NOTE:  "FAIR" INDICATES FEW OR NO CLOUDS BELOW 12,000 FEET WITH NO 
SIGNIFICANT WEATHER AND/OR OBSTRUCTIONS TO VISIBILITY.

MAZALL-272000-
EASTERN MASSACHUSETTS
  
CITY           SKY/WX    TMP DP  RH WIND       PRES   REMARKS
BOSTON         MOSUNNY   41  22  46 SW8       30.07R                  
BEVERLY        SUNNY     39  19  44 VRB6      30.06R                  
LAWRENCE       MOSUNNY   39  21  48 SW8       30.07R                  
BEDFORD        SUNNY     41  20  43 W8        30.05R                  
NORWOOD        MOSUNNY   42  20  41 W7        30.06R                  
MARSHFIELD     MOSUNNY   37  21  52 E7        30.07R                  
PLYMOUTH       MOSUNNY   41  20  43 W7        30.05S                  
TAUNTON          N/A    N/A N/A N/A MISG      30.06S                  
NEW BEDFORD    SUNNY     41  20  43 W7        30.06S                  
$$

MAZALL-272000-
CAPE COD AND THE ISLANDS
  
CITY           SKY/WX    TMP DP  RH WIND       PRES   REMARKS
FALMOUTH       MOSUNNY   41  19  42 W9        30.07S                  
HYANNIS        SUNNY     40  21  46 E5        30.06R                  
CHATHAM        SUNNY     41  24  51 SW7       30.08S                  
PROVINCETOWN   SUNNY     39  22  50 CALM      30.09S                  
NANTUCKET      SUNNY     40  25  55 W14       30.08S                  
MARTHAS VNYRD  SUNNY     41  23  48 W8G16     30.08R                  
$$
 
MAZALL-272000-
CENTRAL AND WESTERN MASSACHUSETTS
  
CITY           SKY/WX    TMP DP  RH WIND       PRES   REMARKS
WORCESTER      MOSUNNY   37  20  50 NW8       30.01S WCI  31          
FITCHBURG      PTSUNNY   37  19  48 W7        30.05S WCI  32          
ORANGE         CLOUDY    35  21  56 W5        30.05S WCI  31          
SPRINGFIELD    PTSUNNY   39  19  45 NE5       30.03S                  
WESTFIELD      CLOUDY    40  19  43 VRB7      30.04S                  
NORTH ADAMS    CLOUDY    35  22  58 VRB7      30.03R WCI  29          
PITTSFIELD     CLOUDY    33  20  58 SW6       29.99S WCI  28          
$$
 
RIZALL-272000-
RHODE ISLAND
  
CITY           SKY/WX    TMP DP  RH WIND       PRES   REMARKS
PROVIDENCE     MOSUNNY   41  20  43 SW7       30.06S                  
NEWPORT        SUNNY     40  25  55 S9        30.06S                  
BLOCK ISLAND   MOSUNNY   40  24  53 W8        30.09R                  
SMITHFIELD     MOSUNNY   40  20  44 N6        30.04F                  
WESTERLY       MOSUNNY   41  24  51 SW8       30.07S                  
$$
 
CTZALL-272000-
CONNECTICUT
  
CITY           SKY/WX    TMP DP  RH WIND       PRES   REMARKS
BRADLEY INTL   PTSUNNY   41  18  39 VRB3      30.05S                  
HARTFORD       PTSUNNY   43  19  38 E5        30.05F                  
BRIDGEPORT     CLOUDY    41  25  53 S10       30.07S                  
DANBURY        CLOUDY    41  20  43 CALM      30.05S                  
GROTON         MOSUNNY   43  27  53 SW12      30.07S                  
NEW HAVEN      CLOUDY    42  28  57 SW8       30.07S                  
CHESTER        PTSUNNY   41  16  36 CALM      30.05R                  
MERIDEN        CLOUDY    42  17  36 CALM      30.05S                  
WILLIMANTIC    MOSUNNY   41  19  41 NW6       30.06S                  
OXFORD         CLOUDY    38  20  48 W5        30.04S                  
$$

MEZ002-015-021-024-NHZ003-005-008-011-012-014-VTZ005-008-272000-
NORTHERN NEW ENGLAND
  
CITY           SKY/WX    TMP DP  RH WIND       PRES   REMARKS
PORTLAND ME    PTSUNNY   35  15  44 CALM      30.05S                  
BANGOR ME      PTSUNNY   32  12  43 VRB3      30.04S                  
CONCORD NH     SUNNY     37  17  44 VRB3      30.03S                  
MANCHESTER NH  MOSUNNY   39  18  42 CALM      30.03S                  
NASHUA NH      MOSUNNY   39  19  44 W6        30.06R                  
PORTSMOUTH NH  MOSUNNY   38  17  42 SW9       30.05S WCI  32          
JAFFREY NH     PTSUNNY   35  18  49 VRB6      30.01R WCI  30          
KEENE NH       CLOUDY    35  20  54 SW5       30.04S WCI  31          
BURLINGTON VT  PTSUNNY   34  21  59 S10       30.00S WCI  26          
MT. WASHINGTON FOG        7   7 100 W36         N/A  VSB 1/16WCI -18  
$$

NYZ052-076-272000-
EASTERN NEW YORK
  
CITY           SKY/WX    TMP DP  RH WIND       PRES   REMARKS
ALBANY         PTSUNNY   35  23  61 SE6       30.05R WCI  30          
NEW YORK CITY  PTSUNNY   42  21  43 W12       30.07S                  
$$
 
ANZALL-272000-
MARINE OBSERVATIONS
  
STATION/POSITION TIME  TEMP    WIND        PRES    VSBY  WAVE
                       AIR SEA DIR/SP/G                  HT/PER
                 (UTC) (F)     (DEG/KT/KT) (MB)    (MI)  (FT/S)
BOSTON BUOY      1840      42                N/A           2/11
BUZZARDS BAY     1800   37     240/ 12/ 13 1018.8F
NANTUCKET SOUND  1850   39 42  280/ 10/ 12 1018.6S         1/ 5
MASS BAY-STELLWA 1704   35 42  250/  8/ 10 1017.8F  1 7/8  3/11
ISLE OF SHOALS   1800   35     270/  8/ 10 1017.1F
S OF BLOCK IS    1826      45                N/A           6/10
$$

......................KEY.........................
  SKY/WX - SKY CONDITION/PRESENT WEATHER
  TMP    - TEMPERATURE IN FAHRENHEIT
  DWPT   - DEWPOINT IN FAHRENHEIT
  RH     - RELATIVE HUMIDITY IN PERCENT
  WIND   - DIRECTION AND SPEED IN MPH
  PRES   - MEAN SEA LEVEL PRESSURE IN INCHES OF HG
  WCI    - WIND CHILL INDEX
  VSB    - VISIBILITY IN MILES
  HX     - HEAT INDEX
  TC     - TEMPERATURE IN CELSIUS
  VRB    - VARIABLE WIND DIRECTION
  N/A    - NOT AVAILABLE
  
      

Other recent Regional Weather Roundups

Sat Jan 28, 9:10pm EST

Sat Jan 28, 8:10pm EST

Sat Jan 28, 7:10pm EST

Sat Jan 28, 6:10pm EST

Sat Jan 28, 5:10pm EST

Sat Jan 28, 4:10pm EST

Sat Jan 28, 3:10pm EST

Sat Jan 28, 2:10pm EST

Sat Jan 28, 1:10pm EST

Sat Jan 28, 12:10pm EST

Sat Jan 28, 11:10am EST

Sat Jan 28, 10:10am EST

Sat Jan 28, 9:10am EST

Sat Jan 28, 8:10am EST

Sat Jan 28, 7:10am EST

Sat Jan 28, 6:10am EST

Sat Jan 28, 5:10am EST

Sat Jan 28, 4:10am EST

Sat Jan 28, 3:10am EST

Sat Jan 28, 2:10am EST

Sat Jan 28, 1:10am EST

Sat Jan 28, 12:10am EST

Fri Jan 27, 11:10pm EST

Fri Jan 27, 10:10pm EST

Fri Jan 27, 9:10pm EST

Fri Jan 27, 8:10pm EST

Fri Jan 27, 7:10pm EST

Fri Jan 27, 6:10pm EST

Fri Jan 27, 5:10pm EST

Fri Jan 27, 4:10pm EST

Fri Jan 27, 3:10pm EST

Fri Jan 27, 1:10pm EST

Fri Jan 27, 12:10pm EST

Fri Jan 27, 11:10am EST

Fri Jan 27, 10:10am EST

Fri Jan 27, 9:10am EST

Fri Jan 27, 8:10am EST

Fri Jan 27, 7:10am EST

Fri Jan 27, 6:10am EST

Fri Jan 27, 5:10am EST

Fri Jan 27, 4:10am EST

Fri Jan 27, 3:10am EST

Fri Jan 27, 2:10am EST

Fri Jan 27, 1:10am EST

Fri Jan 27, 12:10am EST

Thu Jan 26, 11:10pm EST

Thu Jan 26, 10:10pm EST

Thu Jan 26, 9:10pm EST

Thu Jan 26, 8:10pm EST

Thu Jan 26, 7:10pm EST

Thu Jan 26, 6:10pm EST

Thu Jan 26, 5:10pm EST

Thu Jan 26, 4:10pm EST

Thu Jan 26, 3:10pm EST

Thu Jan 26, 2:10pm EST

Thu Jan 26, 1:10pm EST

Thu Jan 26, 12:10pm EST

Thu Jan 26, 11:10am EST

Thu Jan 26, 10:10am EST

Thu Jan 26, 9:10am EST

Thu Jan 26, 8:10am EST

Thu Jan 26, 7:10am EST

Thu Jan 26, 6:10am EST

Thu Jan 26, 5:10am EST

Thu Jan 26, 4:10am EST

Thu Jan 26, 3:10am EST

Thu Jan 26, 2:10am EST

Thu Jan 26, 1:10am EST

Thu Jan 26, 12:10am EST

Wed Jan 25, 11:10pm EST

Wed Jan 25, 10:10pm EST

Wed Jan 25, 9:10pm EST

Wed Jan 25, 8:10pm EST

Wed Jan 25, 7:10pm EST

Wed Jan 25, 6:10pm EST

Wed Jan 25, 5:10pm EST

Wed Jan 25, 4:10pm EST

Wed Jan 25, 3:10pm EST

Wed Jan 25, 2:10pm EST

Wed Jan 25, 1:10pm EST

Wed Jan 25, 12:10pm EST

Wed Jan 25, 11:10am EST

Wed Jan 25, 10:10am EST

Wed Jan 25, 9:10am EST

Wed Jan 25, 8:10am EST

Wed Jan 25, 7:10am EST

Wed Jan 25, 6:10am EST

Wed Jan 25, 5:10am EST

Wed Jan 25, 4:10am EST

Wed Jan 25, 3:10am EST

Wed Jan 25, 2:10am EST

Wed Jan 25, 1:10am EST

Wed Jan 25, 12:10am EST

Tue Jan 24, 11:10pm EST

Tue Jan 24, 10:10pm EST

Tue Jan 24, 9:10pm EST

Tue Jan 24, 8:10pm EST

Tue Jan 24, 7:10pm EST

Tue Jan 24, 6:10pm EST

Tue Jan 24, 5:10pm EST

Tue Jan 24, 4:10pm EST

Tue Jan 24, 3:10pm EST

Tue Jan 24, 2:10pm EST

Tue Jan 24, 1:10pm EST

Tue Jan 24, 12:10pm EST

Tue Jan 24, 11:10am EST

Tue Jan 24, 10:10am EST

Tue Jan 24, 9:10am EST

Tue Jan 24, 8:10am EST

Tue Jan 24, 7:10am EST

Tue Jan 24, 6:10am EST

Tue Jan 24, 5:10am EST

Tue Jan 24, 4:10am EST

Tue Jan 24, 3:10am EST

Tue Jan 24, 2:10am EST

Tue Jan 24, 1:10am EST

Tue Jan 24, 12:10am EST

Mon Jan 23, 11:10pm EST

Mon Jan 23, 10:10pm EST

Mon Jan 23, 9:10pm EST

Mon Jan 23, 8:10pm EST

Mon Jan 23, 7:10pm EST

Mon Jan 23, 6:10pm EST

Mon Jan 23, 5:10pm EST

Mon Jan 23, 4:10pm EST

Mon Jan 23, 3:10pm EST

Mon Jan 23, 2:10pm EST

Mon Jan 23, 1:10pm EST

Mon Jan 23, 12:10pm EST

Mon Jan 23, 11:10am EST

Mon Jan 23, 10:10am EST

Mon Jan 23, 9:10am EST

Mon Jan 23, 8:10am EST

Mon Jan 23, 7:10am EST

Mon Jan 23, 6:10am EST

Mon Jan 23, 5:10am EST

Mon Jan 23, 4:10am EST

Mon Jan 23, 3:10am EST

Mon Jan 23, 2:10am EST

Mon Jan 23, 1:10am EST

Mon Jan 23, 12:10am EST

Sun Jan 22, 11:10pm EST

Sun Jan 22, 10:10pm EST

Sun Jan 22, 9:10pm EST

Sun Jan 22, 8:10pm EST

Sun Jan 22, 7:10pm EST

Sun Jan 22, 6:10pm EST

Sun Jan 22, 5:10pm EST

Sun Jan 22, 4:10pm EST

Sun Jan 22, 3:10pm EST

Sun Jan 22, 2:10pm EST

Sun Jan 22, 1:10pm EST

Sun Jan 22, 12:10pm EST

Sun Jan 22, 11:10am EST

Sun Jan 22, 10:10am EST

Sun Jan 22, 9:10am EST

Sun Jan 22, 8:10am EST

Sun Jan 22, 7:10am EST

Sun Jan 22, 6:10am EST

Sun Jan 22, 5:10am EST

Sun Jan 22, 4:10am EST

Sun Jan 22, 3:10am EST

Sun Jan 22, 2:10am EST

Sun Jan 22, 1:10am EST

Sun Jan 22, 12:10am EST

Sat Jan 21, 11:10pm EST

Sat Jan 21, 10:10pm EST